TimeCST,TemperatureF,Dew PointF,Humidity,Sea Level PressureIn,VisibilityMPH,Wind Direction,Wind SpeedMPH,Gust SpeedMPH,PrecipitationIn,Events,Conditions,WindDirDegrees,DateUTC
12:53 AM,44.1,39.0,82,29.99,10.0,SSW,12.7,-,N/A,,Clear,210,2012-11-19 06:53:00
1:53 AM,44.1,39.0,82,29.99,10.0,SSW,11.5,-,N/A,,Clear,210,2012-11-19 07:53:00
2:53 AM,41.0,37.9,89,30.02,10.0,SSW,10.4,-,N/A,,Clear,200,2012-11-19 08:53:00
5:53 AM,34.0,32.0,92,30.06,10.0,SSW,6.9,-,N/A,,Clear,200,2012-11-19 11:53:00
6:53 AM,32.0,30.0,92,30.08,10.0,SW,6.9,-,N/A,,Clear,220,2012-11-19 12:53:00
7:53 AM,32.0,28.9,88,30.10,10.0,WSW,6.9,-,N/A,,Clear,240,2012-11-19 13:53:00
8:53 AM,42.1,35.1,76,30.12,10.0,West,3.5,-,N/A,,Clear,260,2012-11-19 14:53:00
10:53 AM,61.0,34.0,36,30.12,10.0,NW,6.9,-,N/A,,Clear,320,2012-11-19 16:53:00
11:53 AM,66.9,35.1,31,30.11,10.0,NNW,12.7,-,N/A,,Clear,330,2012-11-19 17:53:00
12:53 PM,69.1,34.0,27,30.09,10.0,NNW,12.7,-,N/A,,Clear,340,2012-11-19 18:53:00
1:53 PM,71.1,33.1,25,30.08,10.0,North,12.7,19.6,N/A,,Clear,350,2012-11-19 19:53:00
2:53 PM,72.0,33.1,24,30.08,10.0,NNW,12.7,-,N/A,,Clear,340,2012-11-19 20:53:00
3:53 PM,71.1,33.1,25,30.09,10.0,NNW,9.2,-,N/A,,Clear,330,2012-11-19 21:53:00
4:53 PM,62.1,32.0,32,30.11,10.0,NNW,6.9,-,N/A,,Clear,340,2012-11-19 22:53:00
5:53 PM,59.0,32.0,36,30.13,10.0,NW,5.8,-,N/A,,Clear,310,2012-11-19 23:53:00
6:53 PM,53.1,30.9,43,30.16,10.0,West,3.5,-,N/A,,Clear,260,2012-11-20 00:53:00
7:53 PM,51.1,30.9,46,30.17,10.0,West,8.1,-,N/A,,Clear,270,2012-11-20 01:53:00
8:53 PM,46.0,30.0,54,30.18,10.0,WNW,5.8,-,N/A,,Clear,300,2012-11-20 02:53:00
9:53 PM,42.1,30.0,62,30.19,10.0,West,3.5,-,N/A,,Clear,280,2012-11-20 03:53:00
10:53 PM,43.0,30.0,60,30.17,10.0,WNW,5.8,-,N/A,,Clear,300,2012-11-20 04:53:00
11:53 PM,46.9,30.9,54,30.17,10.0,NW,4.6,-,N/A,,Clear,310,2012-11-20 05:53:00